Flag for China Weather past 2 weeks in Chongqing, Chongqing Municipality, China

Now
86 °F

Sunny.


Feels Like: 89 °F
Forecast: 74 / 94 °F
Wind: 6 mph from North

Location: Chongqing Airport

Current Time: Aug 31, 2015 at 8:01:41 PM

Latest Report: Aug 31, 2015 at 7:00 PM


Visibility: 10 mi

Pressure: 29.77 "Hg

Humidity: 55%

Dew point: 68 °F

Location of ChongqingLocation

Historic Weather in Chongqing — Graph

°F

Chongqing temperature yesterday

Maximum temperature yesterday: 91 °F (at 4:00 PM)
Minimum temperature yesterday: 73 °F (at 6:00 AM)
Average temperature yesterday: 82 °F

Past Weeks' High & Low Weather Summary

 TemperatureHumidityPressure
High91 °F (Aug 22, 2:00 PM)94% (Aug 17, 11:00 AM)30.01 "Hg (Aug 17, 11:00 AM)
Low70 °F (Aug 19, 7:00 AM)34% (Aug 30, 4:00 PM)29.62 "Hg (Aug 16, 7:00 PM)
Average78 °F75%29.80 "Hg
* Reported Aug 16 7:00 PM — Aug 31 7:00 PM, Chongqing, Weather by CustomWeather, © 2015

Note: Actual official high and low records may vary slightly from our data, if they occured in-between our weather recording intervals... More about our weather records

Advertising

Chongqing weather history for previous 24 hours

 ConditionsComfort  
Time TempWeatherWind HumidityBarometerVisibility
7:00 PM
Mon, Aug 31
86 °FSunny.6 mph55%29.77 "Hg10 mi
6:00 PM88 °FSunny.3 mph43%29.77 "Hg10 mi
5:00 PM90 °FPassing clouds.3 mph38%29.77 "HgN/A
4:00 PM91 °FPassing clouds.3 mph36%29.77 "HgN/A
3:00 PM90 °FPassing clouds.3 mph41%29.80 "HgN/A
2:00 PM90 °FSunny.3 mph41%29.80 "Hg10 mi
1:00 PM88 °FSunny.3 mph43%29.83 "Hg10 mi
12:00 PM88 °FSunny.3 mph49%29.86 "Hg10 mi
11:00 AM86 °FSunny.1 mph55%29.86 "Hg10 mi
10:00 AM82 °FPassing clouds.3 mph62%29.86 "HgN/A
9:00 AM81 °FSunny.3 mph66%29.86 "Hg10 mi
8:00 AM77 °FSunny.1 mph79%29.83 "Hg10 mi
7:00 AM75 °FSunny.3 mph83%29.83 "Hg10 mi
6:00 AM75 °FClear.1 mph78%29.80 "Hg10 mi
5:00 AM77 °FClear.1 mph74%29.80 "Hg10 mi
4:00 AM77 °FClear.3 mph79%29.80 "Hg10 mi
3:00 AM79 °FClear.1 mph70%29.80 "Hg10 mi
2:00 AM79 °FClear.3 mph74%29.80 "Hg10 mi
1:00 AM79 °FClear.3 mph74%29.80 "Hg10 mi
12:00 AM79 °FClear.6 mph74%29.80 "Hg10 mi
11:00 PM
Sun, Aug 30
81 °FClear.6 mph70%29.80 "Hg10 mi
10:00 PM82 °FClear.6 mph66%29.80 "Hg10 mi
9:00 PM84 °FPassing clouds.3 mph58%29.77 "HgN/A
8:00 PM84 °FClear.3 mph58%29.74 "Hg10 mi
Weather by CustomWeather, © 2015

See weather overviewHow to use our weather pages